Flag for Russia Weather past 2 weeks in Kaliningrad, Russia

Now
34 °F

Overcast.


Feels Like: 25 °F
Forecast: 26 / 36 °F
Wind: 13 mph from South

Location: Kaliningrad/Khrabrovo Airport

Current Time: Jan 29, 2015 at 10:35:18 PM

Latest Report: Jan 29, 2015 at 9:30 PM


Visibility: N/A

Pressure: 29.18 "Hg

Humidity: 81%

Dew point: 28 °F

Location of KaliningradLocation

Historic Weather in Kaliningrad — Graph

°F

Kaliningrad temperature yesterday

Maximum temperature yesterday: 36 °F (at 10:00 AM)
Minimum temperature yesterday: 30 °F (at 12:00 AM)
Average temperature yesterday: 33 °F

Past Weeks' High & Low Weather Summary

 TemperatureHumidityPressure
High46 °F (Jan 16, 1:00 PM)100% (Jan 19, 9:00 PM)30.21 "Hg (Jan 19, 9:00 PM)
Low25 °F (Jan 18, 8:00 PM)62% (Jan 16, 1:00 PM)29.18 "Hg (Jan 29, 5:30 AM)
Average33 °F86%29.94 "Hg
* Reported Jan 14 9:00 PM — Jan 29 9:00 PM, Kaliningrad, Weather by CustomWeather, © 2014

Note: Actual official high and low records may vary slightly from our data, if they occured in-between our weather recording intervals... More about our weather records

Advertising

Kaliningrad weather history for previous 24 hours

 ConditionsComfort  
Time TempWeatherWind HumidityBarometerVisibility
9:00 PM
Jan 29
34 °FOvercast.10 mph81%29.18 "HgN/A
8:30 PM34 °FPassing clouds.8 mph81%29.18 "HgN/A
8:00 PM34 °FPassing clouds.8 mph81%29.18 "HgN/A
7:30 PM34 °FPassing clouds.8 mph81%29.18 "HgN/A
7:00 PM36 °FOvercast.8 mph75%29.21 "HgN/A
6:30 PM36 °FOvercast.8 mph75%29.21 "HgN/A
6:00 PM36 °FOvercast.8 mph75%29.21 "HgN/A
5:30 PM36 °FOvercast.6 mph75%29.21 "HgN/A
5:00 PM36 °FOvercast.8 mph75%29.21 "HgN/A
4:30 PM37 °FOvercast.10 mph70%29.21 "HgN/A
4:00 PM37 °FOvercast.10 mph70%29.21 "HgN/A
3:30 PM37 °FMostly cloudy.8 mph70%29.21 "HgN/A
3:00 PM37 °FMostly cloudy.8 mph75%29.21 "HgN/A
2:30 PM37 °FMostly cloudy.10 mph75%29.21 "HgN/A
2:00 PM37 °FMostly cloudy.13 mph75%29.21 "HgN/A
1:30 PM37 °FMostly cloudy.13 mph75%29.21 "HgN/A
1:00 PM37 °FMostly cloudy.15 mph75%29.21 "HgN/A
12:30 PM36 °FMore clouds than sun.15 mph81%29.21 "HgN/A
12:00 PM36 °FMore clouds than sun.15 mph81%29.21 "HgN/A
11:30 AM36 °FMostly cloudy.13 mph81%29.18 "HgN/A
11:00 AM36 °FMostly cloudy.13 mph81%29.18 "HgN/A
10:30 AM36 °FMostly cloudy.13 mph87%29.18 "HgN/A
10:00 AM34 °FMostly cloudy.13 mph93%29.18 "HgN/A
9:30 AM34 °FSprinkles. Mostly cloudy.13 mph93%29.18 "Hg5 mi
9:00 AM34 °FSnow flurries. Mostly cloudy.13 mph93%29.18 "Hg3 mi
8:30 AM34 °FSnow flurries. Mostly cloudy.15 mph87%29.18 "Hg2 mi
8:00 AM34 °FSnow flurries. Mostly cloudy.13 mph87%29.18 "Hg2 mi
7:30 AM34 °FSnow flurries. Mostly cloudy.13 mph87%29.18 "Hg2 mi
7:00 AM34 °FSnow flurries. Mostly cloudy.15 mph87%29.18 "Hg5 mi
6:30 AM34 °FSnow flurries. Mostly cloudy.15 mph87%29.18 "Hg2 mi
6:00 AM34 °FSprinkles. Mostly cloudy.15 mph75%29.18 "Hg6 mi
5:30 AM34 °FMostly cloudy.17 mph75%29.18 "HgN/A
5:00 AM34 °FMostly cloudy.17 mph75%29.21 "HgN/A
4:30 AM34 °FMostly cloudy.17 mph75%29.21 "HgN/A
4:00 AM34 °FMostly cloudy.15 mph75%29.21 "HgN/A
3:00 AM34 °FMostly cloudy.15 mph81%29.24 "HgN/A
2:00 AM34 °FMostly cloudy.15 mph81%29.30 "HgN/A
1:00 AM32 °FMostly cloudy.15 mph87%29.33 "HgN/A
12:00 AM32 °FMostly cloudy.13 mph87%29.39 "HgN/A
11:30 PM
Jan 28
34 °FMostly cloudy.10 mph81%29.42 "HgN/A
11:00 PM34 °FOvercast.13 mph81%29.45 "HgN/A
10:30 PM32 °FOvercast.10 mph87%29.47 "HgN/A
10:00 PM34 °FOvercast.13 mph81%29.47 "HgN/A
Weather by CustomWeather, © 2014

See weather overviewHow to use our weather pages